[[{"header":{"parameterUnit":"m.s-1","parameterCategory":1,"la1":30.2991,"la2":30.254,"lo1":-89.0895,"lo2":-89.0444,"dy":0.0017,"dx":0.0017,"nx":28,"ny":28,"refTime":"2024-07-08T03:00:00:Z","depth":0,"parameterNumber":2,"parameterNumberName":"U-component_of_WINDS"},"data":[0,0,0,0,0,0,0,0,0,0,0,0,0,0,0,0,0,0,0,0,0,0,0,0,0,0,0,0,0,0,0,0,0,0,0,0,0,0,0,0,0,0,0,0,0,0,0,0,0,0,0,0,0,0,0,0,0,0,5.5695,5.5697,0,5.5852,5.5854,5.5856,5.5787,5.5783,5.5779,5.5775,5.5937,5.5944,5.5952,0,0,0,0,0,0,0,0,0,0,0,0,0,5.5333,5.534,5.5695,5.5697,5.5699,5.5852,5.5854,5.5856,5.5787,5.5783,5.5778,5.5774,5.5934,5.5943,5.5953,0,0,0,0,0,0,0,0,0,0,0,0,0,5.549,5.5342,5.5695,5.5683,5.5684,5.5852,5.5854,5.5857,5.5788,5.5783,5.5777,5.5772,5.5931,5.5943,5.5954,5.6143,0,0,5.599,5.5996,0,0,0,0,0,0,0,0,5.5481,5.5503,5.5683,5.5684,5.5685,5.5794,5.5785,5.5953,5.579,5.5749,5.5775,5.5769,5.5894,5.5908,5.5951,5.615,5.6157,5.5991,5.5999,5.6004,5.6007,0,0,0,0,0,0,0,5.547,5.5496,5.5757,5.5686,5.5687,5.5669,5.5685,5.5817,5.5852,5.5752,5.5747,5.5767,5.5893,5.5939,5.5954,5.616,5.5991,5.6002,5.6009,5.6014,5.6517,5.6522,0,0,0,0,0,0,5.546,5.5488,5.5752,5.5762,5.5567,5.568,5.5698,5.5765,5.585,5.5858,5.5772,5.5763,5.5922,5.594,5.5959,5.6182,5.6004,5.6015,5.6021,5.651,5.6518,5.6525,0,0,0,0,0,0,5.5452,5.5484,5.5746,5.5624,5.5656,5.5693,5.5768,5.5771,5.5817,5.5865,5.5871,5.5812,5.5918,5.5943,5.6096,5.6187,5.602,5.6031,5.6503,5.6513,5.6521,5.6631,0,0,0,0,0,0,5.5442,5.5482,5.5555,5.5626,5.5662,5.5882,5.5774,5.5778,5.5837,5.5828,5.5905,5.5912,5.5916,5.6079,5.6108,5.62,5.604,5.6495,5.6507,5.6518,5.6619,5.6643,5.6663,0,0,0,0,0,5.543,5.5581,5.5559,5.5591,5.5755,5.5887,5.5908,5.5909,5.5845,5.5918,5.5948,5.5909,5.6172,5.6096,5.6128,5.6224,5.6489,5.6504,5.6517,5.661,5.6638,5.6662,0,0,0,0,0,0,5.5521,5.559,5.5567,5.5745,5.5811,5.5875,5.5967,5.594,5.6025,5.6012,5.601,5.6028,5.6186,5.6221,5.6134,5.6408,5.6321,5.6342,5.638,5.6408,5.6429,5.6416,5.605,0,0,0,0,0,5.5561,5.5664,5.5719,5.5871,5.5905,5.5931,5.5988,5.5983,5.6051,5.6078,5.612,5.6187,5.6283,5.6348,5.644,5.6624,5.6638,5.6706,5.6728,5.6746,5.6763,5.6858,5.6888,5.6571,5.6571,5.6571,0,0,5.5647,5.5697,5.5762,5.589,5.594,5.6045,5.5954,5.607,5.6147,5.6096,5.6242,5.6275,5.6349,5.6518,5.6594,5.6552,5.6854,5.6764,5.6777,5.6786,5.6876,5.6906,5.6933,5.6581,5.6579,5.6577,0,0,5.5855,5.5905,5.6035,5.6086,5.6163,5.6178,5.6209,5.6278,5.6297,5.6444,5.6406,5.6497,5.6666,5.6719,5.6768,5.6992,5.6958,5.7022,5.7136,5.7228,5.7253,5.7275,5.7351,5.7379,5.704,5.7041,5.7041,0,5.5952,5.6108,5.6106,5.6223,5.6279,5.6236,5.6366,5.6416,5.6519,5.6558,5.6509,5.6716,5.6764,5.6941,5.6995,5.7038,5.7071,5.7013,5.725,5.7272,5.7293,5.7365,5.7394,5.7048,5.7047,5.7046,5.7045,0,5.6221,5.6329,5.6425,5.6523,5.659,5.6714,5.6728,5.6796,5.6784,5.6804,5.6952,5.7007,5.7108,5.715,5.7141,5.7326,5.7296,5.7249,5.716,5.733,5.7397,5.7426,5.7058,5.7055,5.7053,5.7051,0,0,5.6492,5.6585,5.662,5.6661,5.6741,5.6824,5.6944,5.7042,5.7098,5.717,5.7268,5.741,5.7365,5.7421,5.7417,5.7499,5.7667,5.744,5.7442,5.7477,5.7869,5.7902,5.7934,5.7646,5.7651,5.7655,5.7861,0,5.6703,5.6913,5.6912,5.7105,5.7203,5.7163,5.7267,5.7326,5.7347,5.7432,5.7456,5.7554,5.749,5.7523,5.7602,5.763,5.7745,5.7615,5.7735,5.7739,5.7714,5.797,5.8007,5.8198,5.7888,5.7893,5.7896,0,5.6978,5.7056,5.7258,5.7319,5.736,5.7454,5.754,5.7624,5.7688,5.7697,5.7758,5.774,5.7859,5.7769,5.7931,5.7843,5.7892,5.7912,5.792,5.7929,5.7826,5.7983,5.826,5.8288,5.7939,5.7936,5.7932,0,5.715,5.7307,5.7446,5.7484,5.756,5.7626,5.766,5.7719,5.7776,5.7852,5.7888,5.7978,5.8026,5.8095,5.8101,5.8035,5.8263,5.8174,5.8272,5.8272,5.832,5.8317,5.8606,5.8357,5.8357,5.8356,5.8356,0,5.7385,5.7509,5.7524,5.761,5.7747,5.7745,5.788,5.7909,5.7961,5.805,5.8021,5.8105,5.8109,5.8195,5.8201,5.8332,5.8355,5.8364,5.8364,5.8365,5.8364,5.8395,5.8381,5.8364,5.8362,5.8361,5.836,0,5.76,5.7616,5.7765,5.7823,5.784,5.7938,5.7987,5.8068,5.8085,5.8198,5.8224,5.8252,5.8351,5.8363,5.848,5.8483,5.864,5.8627,5.8618,5.8615,5.8711,5.87,5.9028,5.9069,5.8797,5.8799,5.8802,0,5.7747,5.7841,5.7909,5.7966,5.8003,5.8096,5.8153,5.8154,5.8214,5.8293,5.8363,5.8459,5.8535,5.8695,5.8724,5.8812,5.8799,5.8907,5.8812,5.8809,5.8796,5.8789,5.8796,5.8925,5.8928,5.8931,5.8933,0,5.8005,5.8007,5.8091,5.8176,5.8245,5.8312,5.8376,5.8424,5.8432,5.8501,5.8601,5.866,5.8777,5.8871,5.8957,5.8991,5.8962,5.8963,5.8989,5.899,5.8979,5.8982,5.8665,5.8955,5.8953,5.8951,5.895,5.8949,5.8189,5.8268,5.8327,5.842,5.8467,5.8526,5.8603,5.8629,5.8712,5.8806,5.8802,5.8911,5.8969,5.9081,5.9121,5.9205,5.9169,5.9209,5.9218,5.9227,5.9234,5.8968,5.9221,5.922,5.922,5.9219,5.9219,0,5.8441,5.8476,5.8562,5.865,5.8722,5.8689,5.8756,5.8818,5.8914,5.8971,5.9046,5.9158,5.9248,5.9284,5.9372,5.9432,5.9421,5.9455,5.9449,5.9456,5.9264,5.923,5.9462,5.9462,5.9462,5.9462,5.9462,5.9461,5.8581,5.8713,5.8722,5.8876,5.891,5.9015,5.9056,5.9109,5.9154,5.928,5.9355,5.9377,5.9424,5.9514,5.9595,5.9603,5.9635,5.9674,5.9676,5.9495,5.947,5.9447,5.9415,5.9681,5.9682,5.986,5.9862,5.9863]},{"header":{"parameterUnit":"m.s-1","parameterCategory":1,"la1":30.2991,"la2":30.254,"lo1":-89.0895,"lo2":-89.0444,"dy":0.0017,"dx":0.0017,"nx":28,"ny":28,"refTime":"2024-07-08T03:00:00:Z","depth":0,"parameterNumber":3,"parameterNumberName":"V-component_of_WINDS"},"data":[0,0,0,0,0,0,0,0,0,0,0,0,0,0,0,0,0,0,0,0,0,0,0,0,0,0,0,0,0,0,0,0,0,0,0,0,0,0,0,0,0,0,0,0,0,0,0,0,0,0,0,0,0,0,0,0,0,0,3.7179,3.718,0,3.7255,3.7256,3.7257,3.7212,3.721,3.7208,3.7206,3.7281,3.7285,3.7289,0,0,0,0,0,0,0,0,0,0,0,0,0,3.6993,3.6996,3.7179,3.718,3.7181,3.7255,3.7256,3.7257,3.7212,3.721,3.7207,3.7205,3.728,3.7284,3.7289,0,0,0,0,0,0,0,0,0,0,0,0,0,3.7071,3.6997,3.7179,3.7168,3.7168,3.7255,3.7256,3.7257,3.7213,3.721,3.7206,3.7203,3.7278,3.7284,3.729,3.7391,0,0,3.7308,3.7311,0,0,0,0,0,0,0,0,3.7067,3.7078,3.7169,3.7169,3.7169,3.7221,3.7217,3.7302,3.7214,3.7196,3.7206,3.7202,3.7263,3.727,3.7292,3.7395,3.7398,3.7309,3.7312,3.7315,3.7317,0,0,0,0,0,0,0,3.7062,3.7075,3.7209,3.717,3.717,3.7158,3.7165,3.7233,3.7247,3.7197,3.7194,3.7204,3.7263,3.7286,3.7293,3.7399,3.7309,3.7314,3.7318,3.732,3.7587,3.759,0,0,0,0,0,0,3.7057,3.7071,3.7207,3.7211,3.7109,3.7164,3.7172,3.7207,3.7246,3.7249,3.7206,3.7201,3.7277,3.7286,3.7296,3.7415,3.7315,3.7321,3.7324,3.7583,3.7587,3.7591,0,0,0,0,0,0,3.7054,3.707,3.7204,3.714,3.7156,3.717,3.721,3.721,3.7234,3.7253,3.7255,3.7228,3.7275,3.7287,3.7367,3.7417,3.7323,3.7329,3.7579,3.7585,3.7589,3.7657,0,0,0,0,0,0,3.7048,3.7069,3.7109,3.7141,3.716,3.7276,3.7213,3.7214,3.7244,3.7238,3.7273,3.7276,3.7273,3.7359,3.7373,3.7424,3.7333,3.7575,3.7582,3.7588,3.765,3.7663,3.7675,0,0,0,0,0,3.7042,3.7125,3.7111,3.7128,3.721,3.7279,3.7289,3.7285,3.7249,3.7288,3.73,3.7275,3.7409,3.7367,3.7384,3.7436,3.7572,3.758,3.7587,3.7644,3.7661,3.7675,0,0,0,0,0,0,3.7097,3.7129,3.7114,3.721,3.7242,3.7271,3.7321,3.7303,3.7345,3.7338,3.733,3.7339,3.7422,3.7437,3.739,3.7535,3.7485,3.7496,3.7522,3.7538,3.755,3.7545,3.7338,0,0,0,0,0,3.7121,3.7175,3.7199,3.7282,3.7298,3.7307,3.7337,3.7331,3.7363,3.7376,3.7394,3.7426,3.7475,3.7507,3.7554,3.7652,3.7657,3.7696,3.7708,3.7719,3.7728,3.7779,3.7796,3.7617,3.7617,3.7617,0,0,3.717,3.7194,3.7228,3.7293,3.7317,3.7372,3.7319,3.7379,3.7419,3.7385,3.7462,3.7476,3.7511,3.76,3.764,3.7615,3.7779,3.7728,3.7736,3.7741,3.7789,3.7805,3.782,3.7622,3.7621,3.762,0,0,3.7287,3.7311,3.7382,3.7406,3.7443,3.7448,3.7465,3.7496,3.7504,3.7581,3.7556,3.7603,3.7688,3.7713,3.7737,3.7861,3.7839,3.7876,3.7942,3.7991,3.8005,3.8017,3.806,3.8075,3.7886,3.7886,3.7886,0,3.7343,3.7426,3.742,3.7482,3.751,3.7482,3.7552,3.7576,3.7626,3.7645,3.7617,3.7722,3.7743,3.7837,3.7867,3.7888,3.7905,3.7872,3.8004,3.8016,3.8027,3.8068,3.8084,3.7891,3.789,3.789,3.7889,0,3.7492,3.7549,3.7601,3.765,3.7684,3.775,3.7753,3.7788,3.7778,3.7785,3.7862,3.7887,3.7937,3.7958,3.795,3.805,3.8033,3.8005,3.7953,3.8049,3.8086,3.8102,3.7897,3.7895,3.7894,3.7893,0,0,3.7647,3.7691,3.771,3.7731,3.7768,3.7812,3.7875,3.7924,3.7953,3.7988,3.804,3.8112,3.8085,3.8112,3.8105,3.8149,3.8243,3.8114,3.8115,3.8136,3.8352,3.8373,3.8391,3.8229,3.8232,3.8234,3.8349,0,3.7765,3.7877,3.7873,3.7976,3.8028,3.8,3.8055,3.8083,3.8091,3.8135,3.8143,3.8194,3.8155,3.8171,3.8213,3.8223,3.8286,3.8215,3.8275,3.8277,3.8267,3.8411,3.8434,3.8541,3.8364,3.8366,3.8368,0,3.7919,3.7958,3.8067,3.8095,3.8117,3.8166,3.8209,3.8252,3.8283,3.8285,3.8314,3.83,3.8362,3.831,3.8394,3.8346,3.837,3.8378,3.8382,3.8387,3.8328,3.8419,3.8576,3.8591,3.8392,3.839,3.8388,0,3.8019,3.81,3.8175,3.8194,3.8228,3.8263,3.8279,3.8307,3.8336,3.8373,3.8391,3.8435,3.8459,3.8493,3.849,3.8452,3.8575,3.8523,3.8577,3.8577,3.8604,3.8602,3.8766,3.8622,3.8622,3.8621,3.8621,0,3.8151,3.8218,3.822,3.8266,3.834,3.8333,3.8406,3.8418,3.8442,3.8488,3.8467,3.8511,3.8506,3.8549,3.8547,3.8616,3.8628,3.863,3.8629,3.8632,3.8631,3.8647,3.8639,3.8625,3.8625,3.8624,3.8623,0,3.8276,3.828,3.8359,3.8385,3.8393,3.8446,3.8468,3.851,3.8516,3.8575,3.8588,3.8596,3.8646,3.8647,3.8705,3.8703,3.8787,3.8778,3.8777,3.8775,3.8829,3.8823,3.9007,3.903,3.8872,3.8874,3.8875,0,3.8359,3.841,3.8441,3.8471,3.8489,3.8538,3.8567,3.8561,3.8592,3.8629,3.8667,3.8715,3.8753,3.8834,3.8844,3.8888,3.8878,3.894,3.8885,3.8885,3.8877,3.8874,3.8878,3.895,3.8952,3.8954,3.8955,0,3.8507,3.8505,3.8549,3.8592,3.8628,3.8662,3.8693,3.8718,3.8716,3.8751,3.8802,3.8832,3.889,3.8937,3.8978,3.8993,3.8973,3.8972,3.8987,3.899,3.8987,3.8987,3.8805,3.8968,3.8966,3.8966,3.8965,3.8964,3.8612,3.8655,3.8683,3.8731,3.8754,3.8784,3.8824,3.8834,3.8877,3.8924,3.8918,3.8974,3.9001,3.9054,3.9072,3.9115,3.9093,3.9115,3.912,3.9125,3.913,3.8981,3.9123,3.9122,3.9122,3.9121,3.9121,0,3.8757,3.8773,3.8818,3.8862,3.8899,3.8878,3.891,3.8943,3.8993,3.9019,3.9057,3.9114,3.9159,3.9173,3.9216,3.9247,3.9239,3.9259,3.9256,3.9259,3.9148,3.9131,3.9264,3.9264,3.9264,3.9264,3.9264,3.9264,3.8837,3.8908,3.891,3.8991,3.9006,3.9062,3.9082,3.9108,3.9129,3.9194,3.9232,3.924,3.9261,3.9305,3.9345,3.9347,3.9363,3.9387,3.9385,3.9281,3.9267,3.9253,3.9237,3.9391,3.9391,3.9492,3.9493,3.9494]}]]